�������l�o���
Date,Time,MP-1(��Sv/h),MP-2(��Sv/h),MP-3(��Sv/h),MP-4(��Sv/h),MP-5(��Sv/h),MP-6(��Sv/h),MP-7(��Sv/h),MP-8(��Sv/h),����,����(m/s),���J
2017/04/14,00:00,1.015,1.632,1.110,1.956,1.340,0.542,0.990,0.921,���k��,3.1,��
2017/04/14,00:10,1.012,1.631,1.109,1.953,1.344,0.542,0.991,0.920,��,3.5,��
2017/04/14,00:20,1.010,1.633,1.109,1.959,1.343,0.541,0.993,0.920,��,4.2,��
2017/04/14,00:30,1.013,1.634,1.110,1.956,1.343,0.540,0.992,0.920,��,2.3,��
2017/04/14,00:40,1.009,1.633,1.110,1.955,1.342,0.542,0.992,0.923,��,2.6,��
2017/04/14,00:50,1.011,1.633,1.108,1.957,1.341,0.543,0.991,0.921,��,2.6,��
2017/04/14,01:00,1.011,1.632,1.107,1.956,1.341,0.542,0.990,0.922,��,3.6,��
2017/04/14,01:10,1.010,1.632,1.109,1.955,1.343,0.539,0.990,0.922,���쐼,5.5,��
2017/04/14,01:20,1.011,1.632,1.108,1.957,1.340,0.542,0.992,0.920,���쐼,6.8,��
2017/04/14,01:30,1.010,1.629,1.111,1.956,1.343,0.543,0.992,0.921,���쐼,4.5,��
2017/04/14,01:40,1.011,1.634,1.109,1.957,1.340,0.542,0.992,0.922,���쐼,4.6,��
2017/04/14,01:50,1.011,1.631,1.110,1.957,1.340,0.542,0.992,0.922,���쐼,3.7,��
2017/04/14,02:00,1.010,1.632,1.111,1.960,1.342,0.543,0.993,0.920,���쐼,2.3,��
2017/04/14,02:10,1.010,1.632,1.108,1.956,1.341,0.541,0.989,0.921,���쐼,3.6,��
2017/04/14,02:20,1.010,1.631,1.110,1.957,1.344,0.542,0.992,0.920,���쐼,4.1,��
2017/04/14,02:30,1.011,1.631,1.110,1.959,1.342,0.544,0.996,0.923,���쐼,3.3,��
2017/04/14,02:40,1.011,1.633,1.111,1.957,1.344,0.541,0.993,0.919,���쐼,2.3,��
2017/04/14,02:50,1.011,1.635,1.111,1.958,1.343,0.541,0.992,0.922,���쐼,4.0,��
2017/04/14,03:00,1.012,1.634,1.112,1.958,1.344,0.544,0.993,0.920,�쐼,3.0,��
2017/04/14,03:10,1.014,1.635,1.113,1.959,1.343,0.542,0.993,0.922,���쐼,3.5,��
2017/04/14,03:20,1.013,1.635,1.113,1.961,1.342,0.544,0.993,0.921,��,6.9,��
2017/04/14,03:30,1.014,1.634,1.111,1.963,1.346,0.543,0.993,0.922,���쐼,7.7,��
2017/04/14,03:40,1.012,1.633,1.115,1.963,1.341,0.544,0.993,0.920,��,6.8,��
2017/04/14,03:50,1.014,1.636,1.113,1.962,1.345,0.543,0.993,0.920,���쐼,6.4,��
2017/04/14,04:00,1.015,1.635,1.114,1.958,1.343,0.543,0.993,0.920,�쐼,2.0,��
2017/04/14,04:10,1.015,1.636,1.112,1.962,1.342,0.543,0.990,0.921,�쐼,3.1,��
2017/04/14,04:20,1.014,1.635,1.110,1.960,1.342,0.543,0.992,0.921,�쐼,3.1,��
2017/04/14,04:30,1.010,1.632,1.112,1.960,1.342,0.543,0.994,0.920,��,3.8,��
2017/04/14,04:40,1.011,1.634,1.112,1.960,1.342,0.542,0.992,0.922,��쓌,4.1,��
2017/04/14,04:50,1.010,1.633,1.111,1.961,1.343,0.543,0.992,0.920,��쓌,4.2,��
2017/04/14,05:00,1.011,1.631,1.110,1.959,1.343,0.543,0.991,0.920,��,4.1,��
2017/04/14,05:10,1.011,1.634,1.111,1.962,1.342,0.542,0.992,0.921,��,4.8,��
2017/04/14,05:20,1.009,1.633,1.112,1.957,1.342,0.543,0.992,0.920,��,5.2,��
2017/04/14,05:30,1.012,1.631,1.111,1.960,1.342,0.543,0.994,0.920,��,5.7,��
2017/04/14,05:40,1.012,1.634,1.111,1.959,1.344,0.544,0.991,0.921,��,6.7,��
2017/04/14,05:50,1.011,1.633,1.111,1.959,1.343,0.542,0.992,0.922,��,6.5,��
2017/04/14,06:00,1.009,1.634,1.111,1.959,1.342,0.542,0.990,0.923,��,6.3,��
2017/04/14,06:10,1.011,1.633,1.110,1.957,1.344,0.543,0.991,0.920,��쓌,6.2,��
2017/04/14,06:20,1.011,1.634,1.112,1.960,1.344,0.543,0.994,0.922,��쓌,5.9,��
2017/04/14,06:30,1.010,1.636,1.111,1.960,1.343,0.541,0.994,0.921,��쓌,6.1,��
2017/04/14,06:40,1.014,1.636,1.112,1.960,1.342,0.541,0.996,0.921,��쓌,4.8,��
2017/04/14,06:50,1.012,1.638,1.111,1.960,1.341,0.543,0.994,0.922,��쓌,5.3,��
2017/04/14,07:00,1.013,1.637,1.113,1.959,1.344,0.543,0.993,0.923,��쓌,6.9,��
2017/04/14,07:10,1.013,1.636,1.114,1.961,1.345,0.541,0.995,0.921,��쓌,7.0,��
2017/04/14,07:20,1.011,1.637,1.111,1.960,1.342,0.540,0.997,0.923,��쓌,6.3,��
2017/04/14,07:30,1.013,1.637,1.111,1.964,1.345,0.540,0.996,0.922,��쓌,7.1,��
2017/04/14,07:40,1.012,1.638,1.113,1.965,1.343,0.541,0.995,0.922,��쓌,7.2,��
2017/04/14,07:50,1.013,1.639,1.112,1.960,1.343,0.541,0.995,0.922,��쓌,7.8,��
2017/04/14,08:00,1.015,1.640,1.113,1.961,1.344,0.541,0.994,0.922,��쓌,8.7,��
2017/04/14,08:10,1.014,1.639,1.113,1.965,1.346,0.539,0.996,0.924,��쓌,8.3,��
2017/04/14,08:20,1.017,1.639,1.115,1.963,1.347,0.541,0.995,0.925,��쓌,8.2,��
2017/04/14,08:30,1.015,1.633,1.113,1.963,1.346,0.542,0.994,0.923,��쓌,9.4,��
2017/04/14,08:40,1.017,1.634,1.115,1.963,1.346,0.542,0.994,0.923,��쓌,9.5,��
2017/04/14,08:50,1.015,1.639,1.116,1.964,1.348,0.541,0.993,0.922,��쓌,9.8,��
2017/04/14,09:00,1.016,1.640,1.116,1.966,1.348,0.542,0.994,0.923,��쓌,9.6,��
2017/04/14,09:10,1.018,1.640,1.118,1.962,1.348,0.542,0.997,0.920,��쓌,8.5,��
2017/04/14,09:20,1.016,1.638,1.116,1.967,1.350,0.544,0.993,0.921,��쓌,10.2,��
2017/04/14,09:30,1.018,1.638,1.117,1.967,1.347,0.543,0.994,0.919,��쓌,10.2,��
2017/04/14,09:40,1.017,1.639,1.119,1.968,1.351,0.544,0.995,0.919,��쓌,10.7,��
2017/04/14,09:50,1.019,1.642,1.122,1.965,1.350,0.542,0.994,0.921,��쓌,9.6,��
2017/04/14,10:00,1.019,1.638,1.122,1.967,1.348,0.544,0.995,0.920,��쓌,9.6,��
2017/04/14,10:10,1.018,1.640,1.123,1.969,1.351,0.544,0.993,0.920,��쓌,11.9,��
2017/04/14,10:20,1.019,1.643,1.123,1.969,1.348,0.544,0.992,0.922,��쓌,10.4,��
2017/04/14,10:30,1.019,1.647,1.123,1.967,1.348,0.545,0.996,0.920,��쓌,10.8,��
2017/04/14,10:40,1.018,1.646,1.122,1.968,1.346,0.545,0.994,0.921,��쓌,11.8,��
2017/04/14,10:50,1.020,1.646,1.123,1.970,1.346,0.544,0.996,0.921,��쓌,10.8,��
2017/04/14,11:00,1.020,1.647,1.123,1.967,1.352,0.544,0.994,0.920,��쓌,10.2,��
2017/04/14,11:10,1.017,1.650,1.121,1.969,1.349,0.545,0.995,0.920,��,9.0,��
2017/04/14,11:20,1.019,1.648,1.119,1.971,1.351,0.545,0.995,0.922,��쓌,8.1,��
2017/04/14,11:30,1.022,1.647,1.121,1.969,1.351,0.544,0.996,0.920,��쓌,10.8,��
2017/04/14,11:40,1.020,1.650,1.118,1.973,1.352,0.545,0.995,0.923,��쓌,8.0,��
2017/04/14,11:50,1.019,1.650,1.120,1.970,1.353,0.545,0.997,0.920,��쓌,9.3,��
2017/04/14,12:00,1.019,1.651,1.118,1.967,1.352,0.543,0.995,0.921,��쓌,10.9,��
2017/04/14,12:10,1.020,1.647,1.115,1.967,1.355,0.545,0.995,0.921,��쓌,10.2,��
2017/04/14,12:20,1.020,1.651,1.119,1.969,1.355,0.545,0.998,0.921,��쓌,10.7,��
2017/04/14,12:30,1.019,1.650,1.119,1.969,1.355,0.547,0.998,0.920,��쓌,11.3,��
2017/04/14,12:40,1.020,1.650,1.120,1.974,1.356,0.545,0.997,0.920,��쓌,12.0,��
2017/04/14,12:50,1.022,1.650,1.119,1.971,1.356,0.546,0.997,0.922,��쓌,14.6,��
2017/04/14,13:00,1.023,1.651,1.120,1.971,1.355,0.546,0.999,0.922,��쓌,14.9,��
2017/04/14,13:10,1.023,1.654,1.119,1.973,1.357,0.547,0.998,0.922,��,11.8,��
2017/04/14,13:20,1.023,1.655,1.118,1.973,1.359,0.547,0.995,0.922,��,9.4,��
2017/04/14,13:30,1.023,1.653,1.118,1.973,1.354,0.546,0.996,0.922,��쓌,7.9,��
2017/04/14,13:40,1.023,1.651,1.119,1.972,1.355,0.544,0.996,0.921,��,7.6,��
2017/04/14,13:50,1.021,1.654,1.118,1.976,1.356,0.549,0.998,0.921,��,5.6,��
2017/04/14,14:00,1.023,1.652,1.122,1.974,1.357,0.548,0.999,0.923,��,8.4,��
2017/04/14,14:10,1.027,1.653,1.123,1.977,1.357,0.549,0.998,0.925,��,3.7,��
2017/04/14,14:20,1.026,1.654,1.123,1.977,1.356,0.547,0.999,0.923,��,4.4,��
2017/04/14,14:30,1.025,1.653,1.123,1.975,1.360,0.549,1.002,0.921,��,6.9,��
2017/04/14,14:40,1.025,1.654,1.122,1.977,1.358,0.549,0.999,0.923,��,8.3,��
2017/04/14,14:50,1.027,1.657,1.125,1.975,1.362,0.548,1.001,0.924,��쐼,6.9,��
2017/04/14,15:00,1.027,1.653,1.125,1.977,1.360,0.549,0.998,0.925,��,7.3,��
2017/04/14,15:10,1.029,1.656,1.123,1.972,1.359,0.548,1.001,0.924,��,7.2,��
2017/04/14,15:20,1.027,1.653,1.123,1.973,1.357,0.547,0.999,0.923,��,5.7,��
2017/04/14,15:30,1.031,1.658,1.125,1.972,1.362,0.547,0.999,0.925,��쐼,6.8,��
2017/04/14,15:40,1.026,1.656,1.123,1.974,1.361,0.547,0.999,0.923,��,6.7,��
2017/04/14,15:50,1.028,1.652,1.124,1.976,1.361,0.549,0.999,0.924,��,6.6,��
2017/04/14,16:00,1.027,1.652,1.123,1.973,1.362,0.548,1.002,0.923,��,8.6,��
2017/04/14,16:10,1.024,1.654,1.121,1.975,1.362,0.547,0.998,0.925,��,9.0,��
2017/04/14,16:20,1.026,1.658,1.125,1.973,1.361,0.547,0.998,0.924,��,8.6,��
2017/04/14,16:30,1.027,1.653,1.123,1.974,1.363,0.547,1.000,0.924,��,7.5,��
2017/04/14,16:40,1.025,1.652,1.125,1.972,1.359,0.548,1.001,0.925,��,8.7,��
2017/04/14,16:50,1.027,1.657,1.122,1.973,1.361,0.549,0.999,0.925,��,7.1,��
2017/04/14,17:00,1.025,1.656,1.124,1.973,1.360,0.549,0.999,0.925,��,8.9,��
2017/04/14,17:10,1.027,1.657,1.124,1.972,1.361,0.550,0.998,0.922,��,8.9,��
2017/04/14,17:20,1.025,1.659,1.123,1.973,1.360,0.548,0.999,0.925,��,8.7,��
2017/04/14,17:30,1.024,1.658,1.122,1.976,1.361,0.549,1.000,0.926,��쐼,9.4,��
2017/04/14,17:40,1.028,1.659,1.126,1.976,1.360,0.548,1.000,0.929,��,8.6,��
2017/04/14,17:50,1.029,1.658,1.123,1.973,1.359,0.550,0.997,0.927,��,10.3,��
2017/04/14,18:00,1.031,1.661,1.125,1.978,1.360,0.549,1.000,0.925,��쐼,8.2,��
2017/04/14,18:10,1.029,1.658,1.125,1.978,1.363,0.547,0.997,0.927,��,9.5,��
2017/04/14,18:20,1.030,1.660,1.124,1.977,1.362,0.551,0.997,0.926,��,10.2,��
2017/04/14,18:30,1.031,1.659,1.126,1.977,1.363,0.551,0.998,0.927,��쐼,8.9,��
2017/04/14,18:40,1.031,1.657,1.126,1.976,1.361,0.550,0.998,0.927,��쐼,9.6,��
2017/04/14,18:50,1.030,1.655,1.125,1.972,1.362,0.549,1.001,0.926,��쐼,8.9,��
2017/04/14,19:00,1.031,1.657,1.125,1.977,1.365,0.550,0.998,0.926,��쐼,8.9,��
2017/04/14,19:10,1.029,1.656,1.128,1.978,1.364,0.549,1.000,0.928,��쐼,7.1,��
2017/04/14,19:20,1.032,1.658,1.125,1.978,1.363,0.549,1.000,0.926,��쐼,5.8,��
2017/04/14,19:30,1.029,1.659,1.125,1.979,1.364,0.550,0.998,0.927,��쐼,5.1,��
2017/04/14,19:40,1.029,1.657,1.130,1.975,1.365,0.549,1.001,0.926,��쐼,5.1,��
2017/04/14,19:50,1.028,1.654,1.126,1.975,1.362,0.549,1.001,0.925,��쐼,5.4,��
2017/04/14,20:00,1.028,1.656,1.126,1.973,1.363,0.550,1.000,0.926,�쐼,5.9,��
2017/04/14,20:10,1.030,1.657,1.125,1.974,1.363,0.549,1.000,0.926,�쐼,6.9,��
2017/04/14,20:20,1.028,1.655,1.127,1.975,1.363,0.549,1.000,0.925,�쐼,7.3,��
2017/04/14,20:30,1.026,1.656,1.124,1.974,1.362,0.550,1.001,0.926,�쐼,8.5,��
2017/04/14,20:40,1.026,1.655,1.125,1.975,1.362,0.550,1.002,0.925,�쐼,8.9,��
2017/04/14,20:50,1.029,1.655,1.123,1.975,1.362,0.549,1.001,0.925,�쐼,8.9,��
2017/04/14,21:00,1.029,1.654,1.127,1.976,1.364,0.549,1.002,0.926,�쐼,9.6,��
2017/04/14,21:10,1.031,1.657,1.126,1.975,1.364,0.548,1.003,0.925,�쐼,10.5,��
2017/04/14,21:20,1.032,1.658,1.127,1.976,1.364,0.549,1.002,0.927,�쐼,10.2,��
2017/04/14,21:30,1.031,1.658,1.125,1.978,1.362,0.549,1.001,0.927,���쐼,9.3,��
2017/04/14,21:40,1.031,1.657,1.129,1.978,1.361,0.551,1.003,0.927,���쐼,6.9,��
2017/04/14,21:50,1.031,1.654,1.126,1.978,1.362,0.552,1.003,0.928,���쐼,6.2,��
2017/04/14,22:00,1.030,1.655,1.125,1.980,1.364,0.551,1.001,0.927,��,8.1,��
2017/04/14,22:10,1.030,1.657,1.124,1.978,1.363,0.549,1.002,0.927,��,7.2,��
2017/04/14,22:20,1.032,1.654,1.125,1.975,1.364,0.550,1.001,0.926,��,5.4,��
2017/04/14,22:30,1.032,1.656,1.125,1.977,1.363,0.549,1.000,0.924,��쐼,2.0,��
2017/04/14,22:40,1.031,1.655,1.125,1.978,1.362,0.551,1.000,0.926,���쐼,3.3,��
2017/04/14,22:50,1.030,1.654,1.123,1.974,1.362,0.551,1.002,0.929,�쐼,2.3,��
2017/04/14,23:00,1.030,1.654,1.124,1.976,1.363,0.549,1.000,0.927,�쐼,2.8,��
2017/04/14,23:10,1.029,1.658,1.123,1.977,1.362,0.549,1.000,0.927,��쓌,2.3,��
2017/04/14,23:20,1.029,1.655,1.122,1.977,1.364,0.550,0.999,0.926,��쓌,1.5,��
2017/04/14,23:30,1.028,1.655,1.125,1.977,1.362,0.549,1.002,0.927,��,1.7,��
2017/04/14,23:40,1.029,1.656,1.124,1.978,1.360,0.549,1.000,0.926,��쐼,2.0,��
2017/04/14,23:50,1.030,1.655,1.122,1.975,1.363,0.549,1.001,0.926,��쐼,2.9,��
